Find Local Weather

World > North America > United States > Michigan

Ann Arbor, Michigan Regional Weather

Lat: 42.28N, Lon: 83.73W
Wx Zone: MIZ075
Feedback
Expires:201812171200;;925161
ASUS43 KDTX 171110
RWRMI 
MICHIGAN HOURLY REGIONAL WEATHER ROUNDUP
NATIONAL WEATHER SERVICE DETROIT/PONTIAC MI
ISSUED BY NATIONAL WEATHER SERVICE GRAND RAPIDS MI
600 AM EST MON DEC 17 2018

NOTE: "FAIR" INDICATES FEW OR NO CLOUDS BELOW 12,000 FEET WITH NO
SIGNIFICANT WEATHER AND/OR OBSTRUCTION TO VISIBILITY.


MIZ047>049-052>055-059>063-066>070-074>076-081>083-171200-
SOUTHEAST LOWER MICHIGAN
  
CITY           SKY/WX    TMP DP  RH WIND       PRES   REMARKS
ADRIAN         FAIR      34  27  75 NW7       30.00R WCI  28          
ALMA           FAIR      31  26  81 W8        29.98R WCI  24          
ANN ARBOR      FAIR      33  28  81 W10       29.96R WCI  25          
BAD AXE        CLOUDY    33  29  86 NW10      29.91R WCI  25          
DETROIT CITY   FAIR      33  27  78 W7        29.94R WCI  27          
DETROIT        FAIR      33  26  75 W9        29.96R WCI  25          
FLINT          FAIR      31  27  85 W12       29.95R WCI  22          
GROSSE ILE     FAIR      34  29  83 NW10      29.95R WCI  26          
HILLSDALE      FAIR      34  28  80 W12       29.98R WCI  25          
HOWELL         FAIR      32  28  83 W8        29.95S WCI  25          

CITY           SKY/WX    TMP DP  RH WIND       PRES   REMARKS
JACKSON        FAIR      33  28  81 W8        29.98R WCI  26          
LANSING        FAIR      31  27  85 W10       29.98R WCI  22          
MASON          FAIR      32  29  88 W8        29.97R WCI  25          
MONROE         FAIR      32  31  96 W8        29.97R WCI  25          
MT. CLEMENS    FAIR      32  30  92 W8        29.91R WCI  25          
PONTIAC        FAIR      32  27  81 W14       29.92R WCI  22          
PORT HOPE        N/A     36  26  67 NW14      29.89R WCI  27          
PORT HURON     FAIR      32  28  86 NW6       29.92R WCI  26          
TRI CITIES     FAIR      32  27  81 W9        29.96R WCI  24          
YPSILANTI      FAIR      35  27  72 W12       29.96R WCI  27          
$$

SKY/WX - Weather  TMP - Temperature  DP - Dew Point  RH - Relative Humidity
WIND - Wind Direction/Speed PRES - Barometric Pressure